Waarnemingen

Advertentie
Mijn weer
Ouessant, Frankrijk (7100): temperatuur & dauwpunt: 09.10.2019 21:00:00 - 15.10.2019 21:00:00 (CEST)Ouessant, Frankrijk (7100): windsnelheid & windstoten: 09.10.2019 21:00:00 - 15.10.2019 21:00:00 (CEST)Ouessant, Frankrijk (7100): windrichting: 09.10.2019 21:00:00 - 15.10.2019 21:00:00 (CEST)Ouessant, Frankrijk (7100): luchtdruk: 09.10.2019 21:00:00 - 15.10.2019 21:00:00 (CEST)Ouessant, Frankrijk (7100): zicht: 09.10.2019 21:00:00 - 15.10.2019 21:00:00 (CEST)Ouessant, Frankrijk (7100): neerslag: 09.10.2019 21:00:00 - 15.10.2019 21:00:00 (CEST)
Datum & Tijd tt [°C] td [°C] ff [km/u] ff [kn] fx [km/u] fx [kn] dd ppp [hPa] vv [km] rr [mm]
15.10.2019 21:00:00 - - - - - - - - - -
15.10.2019 20:00:00 13,7 13,7 35 19 55 30 Z 1005,2 5 1,0
15.10.2019 19:00:00 13,9 13,4 38 20 50 27 ZZW 1005,7 - 0,0
15.10.2019 18:00:00 14,1 13,3 27 14 43 23 Z 1005,9 - 0,0
15.10.2019 17:00:00 14,4 13,1 32 17 40 22 ZZW 1006,9 18 0,0
15.10.2019 16:00:00 14,9 12,2 26 14 42 23 ZZW 1007,0 - 0,0
15.10.2019 15:00:00 14,8 12,5 32 17 46 25 ZW 1007,3 - 0,0
15.10.2019 14:00:00 15,6 11,0 29 16 39 21 ZW 1007,6 - 0,0
15.10.2019 13:00:00 15,6 11,0 26 14 37 20 W 1007,5 - 0,0
15.10.2019 12:00:00 14,6 9,8 29 16 49 26 WNW 1007,7 - 0,0
15.10.2019 11:00:00 13,7 8,9 38 20 64 35 WNW 1007,2 15 0,0
15.10.2019 10:00:00 12,6 9,6 45 24 71 38 WNW 1006,6 - 0,0
15.10.2019 09:00:00 12,3 9,5 48 26 76 41 WNW 1005,4 - 0,0
15.10.2019 08:00:00 11,6 10,5 54 29 80 43 WNW 1004,5 15 2,4
15.10.2019 07:00:00 11,9 11,4 62 33 85 46 WNW 1003,5 - 0,2
15.10.2019 06:00:00 12,6 12,0 51 27 75 41 W 1002,6 - 1,2
15.10.2019 05:00:00 12,1 11,0 39 21 56 30 WZW 1003,0 20 0,0
15.10.2019 04:00:00 11,2 9,9 32 17 64 34 W 1002,9 - 0,2
15.10.2019 03:00:00 12,5 11,2 29 16 50 27 WZW 1003,2 - 0,0
15.10.2019 02:00:00 12,5 11,1 29 16 - - WZW 1003,0 20 0,0
15.10.2019 01:00:00 12,4 11,0 30 16 45 24 WZW 1002,6 - 0,0
15.10.2019 00:00:00 12,6 11,3 24 13 38 21 ZW 1003,1 - 0,0
14.10.2019 23:00:00 12,7 10,9 22 12 36 19 WZW 1003,2 20 0,0
14.10.2019 22:00:00 12,6 11,0 22 12 32 17 WZW 1002,8 - 0,0
14.10.2019 21:00:00 12,6 11,3 18 10 29 16 ZW 1003,0 - 0,0
14.10.2019 20:00:00 13,1 11,2 21 11 34 19 WZW 1002,2 - 0,0
14.10.2019 19:00:00 14,3 11,3 23 12 30 16 WZW 1001,4 - 0,0
14.10.2019 18:00:00 13,8 13,6 19 11 41 22 ZW 1001,4 - 0,0
14.10.2019 17:00:00 13,8 13,5 33 18 48 26 ZZW 1001,4 15 0,0
14.10.2019 16:00:00 14,5 13,7 34 18 46 25 Z 1001,2 - 0,0
14.10.2019 15:00:00 14,5 13,5 26 14 40 22 Z 1001,4 - 0,0
14.10.2019 14:00:00 15,1 14,1 21 11 36 20 Z 1001,7 15 0,0
14.10.2019 13:00:00 13,6 13,6 27 14 43 23 Z 1002,2 - 0,6
14.10.2019 12:00:00 13,4 13,4 21 11 - - ZZO 1002,3 - 0,6
14.10.2019 11:00:00 13,4 13,4 24 13 54 29 ZZO 1002,4 8 1,2
14.10.2019 10:00:00 13,2 13,2 36 19 56 30 ZO 1002,6 - 0,6
14.10.2019 09:00:00 12,8 12,8 37 20 50 27 ZO 1002,7 - 0,8
14.10.2019 08:00:00 12,9 12,9 35 19 45 24 ZO 1003,2 20 0,2
14.10.2019 07:00:00 13,1 12,8 26 14 47 25 ZO 1004,0 - 0,0
14.10.2019 06:00:00 13,2 12,6 27 15 50 27 ZZO 1004,9 - 0,0
14.10.2019 05:00:00 13,1 11,8 27 15 57 31 ZZO 1005,5 - 0,0
14.10.2019 04:00:00 13,1 12,3 35 19 69 38 ZZO 1006,3 - 0,0
14.10.2019 03:00:00 13,4 11,6 34 18 69 37 ZZO 1006,6 - 0,0
14.10.2019 02:00:00 14,1 13,3 34 18 - - ZZO 1007,3 20 0,0
14.10.2019 01:00:00 13,9 13,6 32 18 49 27 ZO 1007,5 - 0,0
14.10.2019 00:00:00 13,9 13,4 30 16 48 26 ZO 1008,4 - 0,0
13.10.2019 23:00:00 13,9 13,1 23 12 38 20 ZO 1008,8 20 0,0
13.10.2019 22:00:00 13,7 12,8 16 9 30 16 Z 1009,0 - 0,0
13.10.2019 21:00:00 13,6 13,0 20 11 29 16 Z 1009,2 - 0,0
13.10.2019 20:00:00 13,5 12,9 18 10 30 16 Z 1008,9 15 0,0
13.10.2019 19:00:00 13,8 13,0 18 10 29 15 Z 1008,4 - 0,0
13.10.2019 18:00:00 14,6 12,6 18 10 31 17 ZZW 1008,4 - 0,0
13.10.2019 17:00:00 16,1 13,0 22 12 36 20 ZZW 1008,0 - 0,0
13.10.2019 16:00:00 15,6 11,8 24 13 37 20 ZW 1007,7 - 0,0
13.10.2019 15:00:00 16,4 12,4 23 13 36 20 WZW 1007,1 - 0,0
13.10.2019 14:00:00 15,9 13,2 23 13 37 20 W 1006,6 20 0,0
13.10.2019 13:00:00 14,2 12,9 - - 37 20 - 1005,8 - 0,0
13.10.2019 12:00:00 14,1 13,3 24 13 40 21 WZW 1004,6 - 0,0
13.10.2019 11:00:00 13,5 12,9 26 14 35 19 WZW 1003,5 20 0,0
13.10.2019 10:00:00 12,7 12,7 19 10 31 17 WZW 1002,7 - 0,6
13.10.2019 09:00:00 13,1 13,1 20 11 27 15 WZW 1001,8 - 0,6
13.10.2019 08:00:00 12,9 12,9 16 9 23 12 ZW 1001,3 20 0,8
13.10.2019 07:00:00 13,0 13,0 15 8 24 13 W 1000,9 - 0,4
13.10.2019 06:00:00 13,0 13,0 14 7 25 13 WNW 1000,3 - 1,2
13.10.2019 05:00:00 13,8 13,8 18 10 54 29 W 1000,3 - 2,3
13.10.2019 04:00:00 14,7 14,7 42 23 59 32 Z 1000,8 - 3,6
13.10.2019 03:00:00 13,6 13,6 6 3 11 6 Z 1002,2 - 0,8
13.10.2019 02:00:00 13,3 13,3 6 3 12 6 ZZO 1002,7 20 0,0
13.10.2019 01:00:00 12,9 12,9 8 5 18 10 ZO 1003,9 - 0,0
13.10.2019 00:00:00 12,9 12,9 9 5 14 8 OZO 1004,9 - 0,0
12.10.2019 23:00:00 12,7 12,7 13 7 22 12 ZO 1005,3 20 0,0
12.10.2019 22:00:00 12,6 12,6 18 10 26 14 OZO 1005,5 - 0,0
12.10.2019 21:00:00 12,4 12,4 22 12 28 15 O 1006,0 - 0,0
12.10.2019 20:00:00 12,3 12,3 14 8 30 16 ONO 1006,5 10 0,2
12.10.2019 19:00:00 12,2 12,2 22 12 30 16 O 1006,3 - 0,4
12.10.2019 18:00:00 12,2 12,2 25 13 29 16 O 1006,5 - 1,8
12.10.2019 17:00:00 12,2 12,2 18 10 25 13 ONO 1007,1 - 0,2
12.10.2019 16:00:00 12,2 12,2 13 7 20 11 ONO 1007,4 - 0,6
12.10.2019 15:00:00 12,4 12,4 11 6 16 9 ONO 1008,1 - 0,6
12.10.2019 14:00:00 12,4 12,4 12 7 18 10 O 1008,5 4,0 0,8
12.10.2019 13:00:00 12,3 12,3 13 7 19 10 OZO 1009,0 - 0,2
12.10.2019 12:00:00 12,9 12,9 14 7 19 10 OZO 1008,8 - 0,6
12.10.2019 11:00:00 12,8 12,8 5 3 7 4 ZO 1009,0 8 0,0
12.10.2019 10:00:00 12,6 12,6 3 2 8 4 Z 1008,5 - 0,0
12.10.2019 09:00:00 12,3 12,3 2 1 9 5 Z 1007,7 - 0,2
12.10.2019 08:00:00 12,2 12,2 8 4 11 6 WZW 1007,8 - 0,0
12.10.2019 07:00:00 12,2 12,2 7 4 10 6 ZZW 1008,1 - 0,2
12.10.2019 06:00:00 12,3 12,3 7 4 11 6 ZW 1007,8 - 0,4
12.10.2019 05:00:00 12,2 12,2 9 5 19 10 ZZW 1007,9 - 0,2
12.10.2019 04:00:00 11,9 11,9 7 4 13 7 Z 1008,1 - 0,2
12.10.2019 03:00:00 11,6 11,6 3 2 21 11 NW 1008,7 - 0,0
12.10.2019 02:00:00 11,8 11,8 12 6 16 9 NNW 1008,8 20 0,2
12.10.2019 01:00:00 11,8 11,8 8 4 17 9 N 1008,8 - 0,0
12.10.2019 00:00:00 11,9 11,9 11 6 26 14 N 1008,7 - 0,4
11.10.2019 23:00:00 12,5 12,5 16 9 22 12 NNW 1008,5 4,0 0,2
11.10.2019 22:00:00 14,1 13,6 14 7 52 28 WNW 1008,1 - 0,0
11.10.2019 21:00:00 15,0 14,7 34 19 55 30 ZZW 1007,9 - 0,0
11.10.2019 20:00:00 15,1 14,6 37 20 55 30 ZZW 1007,8 10 0,0
11.10.2019 19:00:00 15,4 14,6 35 19 55 30 ZZW 1008,3 - 0,0
11.10.2019 18:00:00 15,8 14,8 37 20 51 27 ZZW 1008,6 - 0,0
11.10.2019 17:00:00 16,7 15,1 36 20 58 32 ZZW 1009,1 10 0,0
11.10.2019 16:00:00 15,7 15,4 36 20 56 31 ZZW 1009,5 - 0,0
11.10.2019 15:00:00 16,3 15,3 40 21 61 33 ZZW 1010,0 - 0,0
11.10.2019 14:00:00 17,3 15,6 44 24 63 34 ZZW 1010,4 10 0,0
11.10.2019 13:00:00 16,5 15,4 44 24 59 32 ZZW 1010,7 - 0,0
11.10.2019 12:00:00 15,7 14,7 44 24 61 33 ZZW 1010,9 - 0,0
11.10.2019 11:00:00 15,5 15,0 40 22 59 32 ZZW 1011,3 8 0,0
11.10.2019 10:00:00 15,2 15,2 39 21 56 31 ZZW 1011,3 - 0,2
11.10.2019 09:00:00 15,1 14,8 39 21 55 30 ZZW 1011,0 - 0,0
11.10.2019 08:00:00 15,0 14,8 39 21 54 29 ZZW 1011,2 15 0,0
11.10.2019 07:00:00 14,9 14,7 38 21 54 29 ZZW 1011,8 - 0,0
11.10.2019 06:00:00 14,8 14,6 36 19 60 33 ZZW 1012,2 - 0,0
11.10.2019 05:00:00 14,7 14,5 37 20 52 28 ZZW 1012,9 15 0,0
11.10.2019 04:00:00 14,5 14,5 37 20 52 28 ZZW 1013,3 - 0,0
11.10.2019 03:00:00 14,5 14,5 39 21 51 28 ZZW 1013,9 - 0,0
11.10.2019 02:00:00 14,5 14,5 36 19 50 27 ZZW 1014,3 20 0,0
11.10.2019 01:00:00 14,3 14,3 37 20 49 26 ZZW 1014,7 - 0,0
11.10.2019 00:00:00 14,4 14,4 37 20 49 26 ZZW 1014,8 - 0,0
10.10.2019 23:00:00 14,1 14,1 30 16 41 22 ZZW 1015,5 20 0,0
10.10.2019 22:00:00 14,3 14,3 29 15 42 23 ZZW 1015,6 - 0,0
10.10.2019 21:00:00 14,7 14,7 27 15 - - ZW 1016,2 - 0,0
10.10.2019 20:00:00 14,7 14,5 30 16 41 22 ZZW 1016,1 12 0,0
10.10.2019 19:00:00 14,9 14,6 25 14 40 21 ZZW 1016,4 - 0,0
10.10.2019 18:00:00 15,2 14,7 28 15 40 22 ZZW 1016,6 - 0,0
10.10.2019 17:00:00 16,2 15,1 29 16 48 26 ZZW 1016,8 12 0,0
10.10.2019 16:00:00 16,7 15,1 34 19 49 27 ZZW 1016,8 - 0,0
10.10.2019 15:00:00 16,9 15,2 29 16 47 25 ZW 1017,4 - 0,0
10.10.2019 14:00:00 16,8 14,8 31 17 46 25 ZZW 1017,8 15 0,0
10.10.2019 13:00:00 16,5 13,4 29 16 46 25 ZW 1017,7 - 0,0
10.10.2019 12:00:00 16,3 13,4 26 14 37 20 ZW 1017,8 - 0,4
10.10.2019 11:00:00 15,4 13,6 15 8 32 17 ZW 1018,0 - -
10.10.2019 10:00:00 - - - - - - - - - -
10.10.2019 09:00:00 12,3 11,2 19 10 23 13 W 1017,3 - 0,0
10.10.2019 08:00:00 11,6 10,3 19 10 24 13 W 1017,0 15 0,0
10.10.2019 07:00:00 11,9 10,8 18 10 30 16 W 1016,6 - 0,0
10.10.2019 06:00:00 12,8 10,7 24 13 34 18 WNW 1016,3 - 0,0
10.10.2019 05:00:00 12,8 11,2 21 12 40 22 WNW 1016,0 - 0,0
10.10.2019 04:00:00 13,3 11,4 28 15 43 23 WNW 1015,8 - 0,0
10.10.2019 03:00:00 13,3 11,0 32 17 41 22 WNW 1015,9 - 0,0
10.10.2019 02:00:00 13,2 11,4 30 16 - - WNW 1015,0 15 0,0
10.10.2019 01:00:00 13,3 12,2 33 18 48 26 W 1014,8 - 0,0
10.10.2019 00:00:00 13,2 12,3 31 17 53 29 W 1014,4 - 0,0
09.10.2019 23:00:00 12,6 11,8 47 26 68 37 WNW 1014,3 15 0,4
09.10.2019 22:00:00 13,8 12,9 40 22 62 34 W 1013,6 - 0,0
09.10.2019 21:00:00 14,0 12,0 37 20 55 30 W 1013,5 - 0,0

tt = temperatuur
td = dauwpunt
ff = windsnelheid
fx = windstoten
dd = windrichting
ppp = luchtdruk
vv = zicht
rr = neerslag

Weerstations in de omgeving